SERIK ESGG-ZZZZ

Flight info

Callsign SERIK
Flight time N/A
Altitude
Route
Aircraft DA40

Departure

Time 2026-04-30 13:31
Airport Göteborg Landvetter Airport (ESGG)

Arrival

Time N/A
Airport ZZZZ
Time Latitude Longitude Altitude Speed Heading
2026-04-30 13:24 57.67460 12.29255 510 ft 0 kts 266°
2026-04-30 13:26 57.67176 12.28794 510 ft 68 kts 205°
2026-04-30 13:26 57.66143 12.27641 749 ft 88 kts 236°
2026-04-30 13:27 57.65875 12.25469 994 ft 93 kts 271°
2026-04-30 13:28 57.66772 12.23417 945 ft 92 kts 21°
2026-04-30 13:28 57.67845 12.24882 903 ft 95 kts 36°
2026-04-30 13:28 57.68313 12.25657 919 ft 82 kts 34°
2026-04-30 13:29 57.68836 12.27223 849 ft 71 kts 94°
2026-04-30 13:29 57.68401 12.28829 773 ft 73 kts 141°
2026-04-30 13:30 57.67265 12.28873 509 ft 47 kts 204°
2026-04-30 13:31 57.66443 12.28132 580 ft 88 kts 205°
2026-04-30 13:31 57.65524 12.25500 1161 ft 98 kts 288°
2026-04-30 13:32 57.66560 12.23694 1308 ft 129 kts 353°
2026-04-30 13:32 57.68037 12.24846 1155 ft 145 kts 33°
2026-04-30 13:33 57.69380 12.27054 1106 ft 113 kts 45°
2026-04-30 13:33 57.69136 12.29365 896 ft 89 kts 141°
2026-04-30 13:34 57.68539 12.29784 899 ft 103 kts 188°
2026-04-30 13:34 57.66319 12.28018 929 ft 122 kts 212°
2026-04-30 13:35 57.65774 12.26931 968 ft 115 kts 251°
2026-04-30 13:35 57.66301 12.24181 1153 ft 122 kts 309°
2026-04-30 13:36 57.67985 12.23558 1224 ft 139 kts 22°
2026-04-30 13:36 57.68760 12.24427 1337 ft 116 kts 30°
2026-04-30 13:36 57.69983 12.26108 1297 ft 106 kts 34°
2026-04-30 13:37 57.70398 12.27138 1235 ft 97 kts 73°
2026-04-30 13:37 57.70110 12.29289 1095 ft 83 kts 121°
2026-04-30 13:38 57.69267 12.30598 956 ft 83 kts 189°
2026-04-30 13:38 57.67725 12.29326 589 ft 75 kts 209°
2026-04-30 13:39 57.66883 12.28539 533 ft 71 kts 208°
2026-04-30 13:39 57.65816 12.27410 887 ft 97 kts 227°
2026-04-30 13:40 57.65505 12.26259 1040 ft 107 kts 260°
2026-04-30 13:40 57.65563 12.24819 1107 ft 117 kts 283°
2026-04-30 13:40 57.65800 12.23320 1168 ft 123 kts 285°
2026-04-30 13:40 57.66075 12.21794 1177 ft 126 kts 288°
2026-04-30 13:41 57.66340 12.20264 1300 ft 118 kts 285°
2026-04-30 13:41 57.66544 12.18782 1377 ft 119 kts 283°
2026-04-30 13:41 57.66747 12.17213 1298 ft 128 kts 284°
2026-04-30 13:41 57.66990 12.15615 1296 ft 127 kts 285°
2026-04-30 13:42 57.67212 12.14059 1328 ft 122 kts 283°
2026-04-30 13:42 57.67446 12.12546 1385 ft 121 kts 285°
2026-04-30 13:42 57.67845 12.09525 1503 ft 113 kts 281°
2026-04-30 13:43 57.68044 12.08228 1909 ft 97 kts 289°
2026-04-30 13:43 57.68332 12.07126 2221 ft 96 kts 303°
2026-04-30 13:43 57.68750 12.06165 2540 ft 88 kts 310°
2026-04-30 13:43 57.69222 12.05474 2885 ft 87 kts 327°
2026-04-30 13:44 57.69817 12.04991 2953 ft 96 kts 346°
2026-04-30 13:44 57.70130 12.05172 2878 ft 43 kts 122°
2026-04-30 13:44 57.69623 12.04823 2515 ft 63 kts 201°
2026-04-30 13:44 57.69260 12.04807 2035 ft 39 kts 191°
2026-04-30 13:45 57.69864 12.06478 1424 ft 80 kts 12°
2026-04-30 13:45 57.70349 12.06815 1357 ft 72 kts 12°
2026-04-30 13:45 57.70784 12.07222 1258 ft 75 kts 24°
2026-04-30 13:46 57.71259 12.07722 1140 ft 78 kts 20°
2026-04-30 13:46 57.71737 12.08200 1204 ft 85 kts 20°
2026-04-30 13:46 57.72348 12.08782 1306 ft 111 kts 21°
2026-04-30 13:46 57.73061 12.09475 1452 ft 120 kts 21°
2026-04-30 13:47 57.73830 12.10170 1609 ft 127 kts 21°
2026-04-30 13:47 57.74631 12.10969 1682 ft 131 kts 26°
2026-04-30 13:47 57.75341 12.11833 1720 ft 115 kts 30°
2026-04-30 13:47 57.75936 12.12777 1738 ft 112 kts 46°
2026-04-30 13:48 57.76289 12.14019 1680 ft 105 kts 75°
2026-04-30 13:48 57.76358 12.15379 1596 ft 105 kts 90°
2026-04-30 13:48 57.76370 12.16760 1497 ft 107 kts 88°
2026-04-30 13:48 57.76391 12.18112 1365 ft 99 kts 88°
2026-04-30 13:49 57.76406 12.19333 1299 ft 94 kts 89°
2026-04-30 13:49 57.76377 12.20574 1253 ft 97 kts 95°
2026-04-30 13:49 57.76233 12.21865 1162 ft 103 kts 105°
2026-04-30 13:49 57.75987 12.23110 1133 ft 101 kts 114°
2026-04-30 13:50 57.75712 12.24307 1115 ft 97 kts 117°
2026-04-30 13:50 57.75179 12.26601 1026 ft 99 kts 118°
2026-04-30 13:50 57.74910 12.27865 958 ft 108 kts 117°
2026-04-30 13:51 57.74613 12.29172 1026 ft 107 kts 116°
2026-04-30 13:51 57.74316 12.30452 1117 ft 110 kts 117°
2026-04-30 13:51 57.73977 12.31793 1119 ft 105 kts 116°
2026-04-30 13:51 57.73705 12.32896 1027 ft 86 kts 121°
2026-04-30 13:52 57.73344 12.33712 1013 ft 78 kts 149°
2026-04-30 13:52 57.72892 12.33809 1055 ft 74 kts 195°
2026-04-30 13:52 57.72289 12.33545 1024 ft 102 kts 205°
2026-04-30 13:52 57.71590 12.32993 1057 ft 115 kts 210°
2026-04-30 13:53 57.70860 12.32324 1083 ft 119 kts 212°
2026-04-30 13:53 57.70107 12.31633 1117 ft 119 kts 213°
2026-04-30 13:53 57.69451 12.31040 1124 ft 90 kts 213°
2026-04-30 13:53 57.68914 12.30545 1051 ft 85 kts 214°
2026-04-30 13:54 57.68412 12.30053 851 ft 74 kts 213°
2026-04-30 13:54 57.67979 12.29563 631 ft 65 kts 211°
2026-04-30 13:54 57.67610 12.29208 511 ft 48 kts 182°
2026-04-30 13:54 57.67452 12.29105 509 ft 14 kts 141°
2026-04-30 13:55 57.67462 12.29265 510 ft 13 kts 89°
2026-04-30 13:55 57.67460 12.29296 510 ft 0 kts 116°